Change the Weather History Date:

Wednesday, November 7, 2012

  Actual Average Record
Temperature  
Mean Temperature 48 °F -  
Max Temperature 66 °F - - ()
Min Temperature 30 °F - - ()
Degree Days  
Heating Degree Days 17    
Moisture  
Dew Point 14 °F    
Average Humidity 28    
Maximum Humidity 40    
Minimum Humidity 15    
Precipitation  
Precipitation 0.00 in - - ()
Sea Level Pressure  
Sea Level Pressure 30.21 in    
Wind  
Wind Speed 2 mph (SSW)    
Max Wind Speed 10 mph    
Max Gust Speed -    
Visibility 10 miles    
Events      
T = Trace of Precipitation, MM = Missing Value Source: NWS Daily Summary

Daily Weather History Graph

Daily Weather History Graph

Search for Another Location

Airport or City:

Trip Planner

Search our weather history database for the weather conditions in past years. The results will help you decide how hot, cold, wet, or windy it might be!

Date:

Astronomy

Nov. 07, 2012 Rise Set
Actual Time 6:34 AM MST 5:06 PM MST
Civil Twilight 6:08 AM MST 5:33 PM MST
Nautical Twilight 5:37 AM MST 6:03 PM MST
Astronomical Twilight 5:08 AM MST 6:33 PM MST
Moon No Moon Rise 1:03 PM MST (11/7)
Length of Visible Light 11h 25m
Length of Day
10h 32m
Last Quarter, 42% of the Moon is Illuminated
Nov 7
Last Quarter
Nov 13
New
Nov 20
First Quarter
Nov 28
Full
Dec 6
Last Quarter

Hourly Weather History & Observations

Time (MST) Temp. Windchill Dew Point Humidity Pressure Visibility Wind Dir Wind Speed Gust Speed Precip Events Conditions
12:15 AM 42.8 °F - 14.0 °F 31% 30.29 in 10.0 mi Calm Calm - N/A   Clear
12:35 AM 41.0 °F - 14.0 °F 33% 30.30 in 10.0 mi Calm Calm - N/A   Clear
12:55 AM 39.2 °F - 12.2 °F 33% 30.30 in 10.0 mi Calm Calm - N/A   Clear
1:15 AM 41.0 °F - 14.0 °F 33% 30.29 in 10.0 mi Calm Calm - N/A   Clear
1:55 AM 35.6 °F - 12.2 °F 38% 30.29 in 10.0 mi Calm Calm - N/A   Clear
2:15 AM 35.6 °F - 10.4 °F 35% 30.29 in 10.0 mi Calm Calm - N/A   Clear
2:35 AM 35.6 °F - 10.4 °F 35% 30.28 in 10.0 mi Calm Calm - N/A   Clear
2:55 AM 35.6 °F - 10.4 °F 35% 30.28 in 10.0 mi Calm Calm - N/A   Clear
3:15 AM 35.6 °F - 10.4 °F 35% 30.28 in 10.0 mi Calm Calm - N/A   Clear
3:35 AM 37.4 °F 30.8 °F 14.0 °F 38% 30.27 in 10.0 mi North 9.2 mph - N/A   Clear
3:55 AM 41.0 °F 36.4 °F 14.0 °F 33% 30.27 in 10.0 mi NW 6.9 mph - N/A   Clear
4:15 AM 39.2 °F - 14.0 °F 36% 30.27 in 10.0 mi Calm Calm - N/A   Clear
4:35 AM 37.4 °F - 14.0 °F 38% 30.28 in 10.0 mi Calm Calm - N/A   Clear
6:50 AM 30.2 °F - 8.6 °F 40% 30.28 in 10.0 mi Calm Calm - N/A   Clear
7:50 AM 44.6 °F - 14.0 °F 29% 30.29 in 10.0 mi Calm Calm - N/A   Clear
8:50 AM 53.6 °F - 15.8 °F 22% 30.30 in 10.0 mi Calm Calm - N/A   Clear
9:50 AM 57.2 °F - 17.6 °F 21% 30.29 in 10.0 mi Calm Calm - N/A   Clear
10:50 AM 59.0 °F - 17.6 °F 20% 30.27 in 10.0 mi Calm Calm - N/A   Clear
11:50 AM 62.6 °F - 17.6 °F 18% 30.22 in 10.0 mi Calm Calm - N/A   Clear
12:50 PM 66.2 °F - 17.6 °F 15% 30.19 in 10.0 mi SSE 6.9 mph - N/A   Clear
1:50 PM 66.2 °F - 17.6 °F 15% 30.16 in 10.0 mi Variable 6.9 mph - N/A   Clear
2:50 PM 66.2 °F - 19.4 °F 17% 30.14 in 10.0 mi SE 10.4 mph - N/A   Clear
3:50 PM 66.2 °F - 19.4 °F 17% 30.13 in 10.0 mi SSE 6.9 mph - N/A   Clear
4:50 PM 62.6 °F - 17.6 °F 18% 30.13 in 10.0 mi SSE 6.9 mph - N/A   Clear
5:50 PM 53.6 °F - 15.8 °F 22% 30.13 in 10.0 mi Calm Calm - N/A   Clear
6:50 PM 51.8 °F - 15.8 °F 24% 30.14 in 10.0 mi SSW 8.1 mph - N/A   Clear
7:50 PM 53.6 °F - 15.8 °F 22% 30.14 in 10.0 mi SSW 6.9 mph - N/A   Clear
8:50 PM 46.4 °F - 14.0 °F 27% 30.14 in 10.0 mi Calm Calm - N/A   Clear
9:15 PM 46.4 °F - 14.0 °F 27% 30.14 in 10.0 mi Calm Calm - N/A   Clear
9:35 PM 48.2 °F - 14.0 °F 25% 30.14 in 10.0 mi SW 4.6 mph - N/A   Clear
9:55 PM 44.6 °F 40.7 °F 14.0 °F 29% 30.14 in 10.0 mi SW 6.9 mph - N/A   Clear
10:15 PM 44.6 °F - 15.8 °F 31% 30.13 in 10.0 mi Calm Calm - N/A   Clear
10:35 PM 46.4 °F - 14.0 °F 27% 30.13 in 10.0 mi Calm Calm - N/A   Clear
10:55 PM 48.2 °F - 15.8 °F 27% 30.13 in 10.0 mi Calm Calm - N/A   Clear
11:15 PM 44.6 °F - 15.8 °F 31% 30.13 in 10.0 mi Calm Calm - N/A   Clear
11:35 PM 41.0 °F - 10.4 °F 29% 30.13 in 10.0 mi Calm Calm - N/A   Clear
11:55 PM 41.0 °F - 14.0 °F 33% 30.13 in 10.0 mi Calm Calm - N/A   Clear